sat.trackr.live / text

‹ back to catalog

STARLINK-1368

NORAD 45540 · 2020-025K

PAYLOAD ACTIVE UNKNOWN

§ Identity

Operator
Country
US
Launch date
2020-04-22
Launch site
AFETR
Launch vehicle
Mass (kg)
RCS (m²)

Purposes: comms

External: N2YO · Heavens-Above · Gunter

§ Orbital elements

Epoch: 2026-05-25T03:44:51.722880Z

Period
93.76 min
Inclination
53.1561°
Eccentricity
0.0004805
Mean motion
15.35900884 rev/d
Perigee alt
455.0 km
Apogee alt
461.5 km
Semi-major
6,836.4 km
B*
1.2238e-3
RAAN
104.8014°
Arg perigee
72.0302°
Mean anomaly
288.1225°
Rev number
33,689

§ Raw data

STARLINK-13681 45540U 20025K   26145.15615420  .00043256  00000+0  12238-2 0  99962 45540  53.1561 104.8014 0004805  72.0302 288.1225 15.35900884336890

JSON: /api/v1/satellites/45540 · /tle

For live sub-satellite position, see the globe view (requires WebGL).

§ Visibility from observer

Set your observer location to see the next 7 days of passes ≥ 10°. The values pass through the URL so the page stays shareable.

No JS? Fill the form by hand. The geolocation button needs JavaScript.